Time,TemperatureF,DewpointF,PressureIn,WindDirection,WindDirectionDegrees,WindSpeedMPH,WindSpeedGustMPH,Humidity,HourlyPrecipIn,Conditions,Clouds,dailyrainin,SoftwareType,DateUTC
2013-06-02 00:01:00,82.0,22.0,29.86,WNW,287,15.0,20.0,11,0.00,,,0.00,,2013-06-02 07:01:00,
2013-06-02 00:31:00,82.0,22.0,29.86,West,274,12.0,19.0,11,0.00,,,0.00,,2013-06-02 07:31:00,
2013-06-02 00:41:00,80.0,23.0,29.86,West,270,12.0,17.0,12,0.00,,,0.00,,2013-06-02 07:41:00,
2013-06-02 01:01:00,81.0,24.0,29.85,West,274,11.0,18.0,12,0.00,,,0.00,,2013-06-02 08:01:00,
2013-06-02 01:31:00,76.0,31.0,29.85,WSW,250,11.0,21.0,19,0.00,,,0.00,,2013-06-02 08:31:00,
2013-06-02 01:41:00,78.0,31.0,29.85,West,263,11.0,16.0,18,0.00,,,0.00,,2013-06-02 08:41:00,
2013-06-02 02:01:00,77.0,32.0,29.84,WSW,258,11.0,18.0,19,0.00,,,0.00,,2013-06-02 09:01:00,
2013-06-02 02:21:00,74.0,37.0,29.83,SW,229,18.0,24.0,26,0.00,,,0.00,,2013-06-02 09:21:00,
2013-06-02 02:32:00,73.0,36.0,29.83,SW,235,18.0,23.0,26,0.00,,,0.00,,2013-06-02 09:32:00,
2013-06-02 02:42:00,73.0,36.0,29.83,SW,235,18.0,23.0,26,0.00,,,0.00,,2013-06-02 09:42:00,
2013-06-02 02:53:00,73.0,34.0,29.83,WSW,241,13.0,22.0,24,0.00,,,0.00,,2013-06-02 09:53:00,
2013-06-02 03:02:00,73.0,33.0,29.85,WSW,243,13.0,24.0,23,0.00,,,0.00,,2013-06-02 10:02:00,
2013-06-02 03:12:00,73.0,33.0,29.85,WSW,243,13.0,24.0,23,0.00,,,0.00,,2013-06-02 10:12:00,
2013-06-02 03:22:00,72.0,34.0,29.85,SW,230,18.0,23.0,25,0.00,,,0.00,,2013-06-02 10:22:00,
2013-06-02 03:32:00,72.0,36.0,29.84,SW,225,15.0,24.0,27,0.00,,,0.00,,2013-06-02 10:32:00,
2013-06-02 03:41:00,72.0,36.0,29.84,SW,225,15.0,24.0,27,0.00,,,0.00,,2013-06-02 10:41:00,
2013-06-02 03:52:00,72.0,34.0,29.84,SW,234,17.0,24.0,25,0.00,,,0.00,,2013-06-02 10:52:00,
2013-06-02 04:02:00,71.0,34.0,29.84,SW,235,16.0,21.0,26,0.00,,,0.00,,2013-06-02 11:02:00,
2013-06-02 04:11:00,71.0,34.0,29.84,SW,235,16.0,21.0,26,0.00,,,0.00,,2013-06-02 11:11:00,
2013-06-02 04:21:00,71.0,34.0,29.84,SW,231,15.0,24.0,26,0.00,,,0.00,,2013-06-02 11:21:00,
2013-06-02 04:32:00,70.0,34.0,29.84,SW,234,13.0,19.0,27,0.00,,,0.00,,2013-06-02 11:32:00,
2013-06-02 04:42:00,70.0,34.0,29.84,SW,234,13.0,19.0,27,0.00,,,0.00,,2013-06-02 11:42:00,
2013-06-02 04:52:00,68.0,35.0,29.84,SW,222,15.0,22.0,29,0.00,,,0.00,,2013-06-02 11:52:00,
2013-06-02 05:01:00,67.0,34.0,29.83,SSW,210,16.0,19.0,29,0.00,,,0.00,,2013-06-02 12:01:00,
2013-06-02 05:11:00,67.0,34.0,29.83,SSW,210,16.0,19.0,29,0.00,,,0.00,,2013-06-02 12:11:00,
2013-06-02 05:21:00,67.0,34.0,29.83,SSW,211,14.0,20.0,29,0.00,,,0.00,,2013-06-02 12:21:00,
2013-06-02 05:31:00,67.0,35.0,29.84,SSW,207,15.0,19.0,30,0.00,,,0.00,,2013-06-02 12:31:00,
2013-06-02 05:41:00,67.0,35.0,29.84,SSW,207,15.0,19.0,30,0.00,,,0.00,,2013-06-02 12:41:00,
2013-06-02 05:52:00,67.0,35.0,29.84,SSW,207,14.0,18.0,31,0.00,,,0.00,,2013-06-02 12:52:00,
2013-06-02 06:01:00,66.0,34.0,29.84,SSW,211,14.0,20.0,31,0.00,,,0.00,,2013-06-02 13:01:00,
2013-06-02 06:11:00,66.0,34.0,29.84,SSW,211,14.0,20.0,31,0.00,,,0.00,,2013-06-02 13:11:00,
2013-06-02 06:21:00,66.0,34.0,29.85,SSW,211,13.0,20.0,30,0.00,,,0.00,,2013-06-02 13:21:00,
2013-06-02 06:31:00,66.0,33.0,29.85,SW,218,14.0,19.0,29,0.00,,,0.00,,2013-06-02 13:31:00,
2013-06-02 06:41:00,66.0,33.0,29.85,SW,218,14.0,19.0,29,0.00,,,0.00,,2013-06-02 13:41:00,
2013-06-02 06:52:00,67.0,33.0,29.85,SW,231,13.0,20.0,28,0.00,,,0.00,,2013-06-02 13:52:00,
2013-06-02 07:01:00,66.0,33.0,29.85,SW,221,14.0,20.0,29,0.00,,,0.00,,2013-06-02 14:01:00,
2013-06-02 07:11:00,66.0,33.0,29.85,SW,221,14.0,20.0,29,0.00,,,0.00,,2013-06-02 14:11:00,
2013-06-02 07:21:00,67.0,33.0,29.85,SW,234,16.0,20.0,28,0.00,,,0.00,,2013-06-02 14:21:00,
2013-06-02 07:32:00,67.0,32.0,29.85,SW,231,16.0,21.0,27,0.00,,,0.00,,2013-06-02 14:32:00,
2013-06-02 07:41:00,67.0,32.0,29.85,SW,231,16.0,21.0,27,0.00,,,0.00,,2013-06-02 14:41:00,
2013-06-02 07:52:00,68.0,33.0,29.85,SW,222,15.0,20.0,27,0.00,,,0.00,,2013-06-02 14:52:00,
2013-06-02 08:01:00,68.0,33.0,29.85,SW,221,16.0,21.0,27,0.00,,,0.00,,2013-06-02 15:01:00,
2013-06-02 08:11:00,68.0,33.0,29.85,SW,221,16.0,21.0,27,0.00,,,0.00,,2013-06-02 15:11:00,
2013-06-02 08:21:00,71.0,33.0,29.85,SW,228,15.0,20.0,25,0.00,,,0.00,,2013-06-02 15:21:00,
2013-06-02 08:32:00,72.0,32.0,29.85,SW,221,15.0,19.0,23,0.00,,,0.00,,2013-06-02 15:32:00,
2013-06-02 08:42:00,75.0,34.0,29.85,SW,216,13.0,18.0,22,0.00,,,0.00,,2013-06-02 15:42:00,
2013-06-02 08:53:00,75.0,34.0,29.85,SW,216,13.0,18.0,22,0.00,,,0.00,,2013-06-02 15:53:00,
2013-06-02 09:03:00,80.0,33.0,29.85,WSW,246,10.0,15.0,18,0.00,,,0.00,,2013-06-02 16:03:00,
2013-06-02 09:22:00,82.0,30.0,29.84,WSW,237,9.0,17.0,15,0.00,,,0.00,,2013-06-02 16:22:00,
2013-06-02 09:32:00,82.0,30.0,29.84,SW,217,8.0,14.0,15,0.00,,,0.00,,2013-06-02 16:32:00,
2013-06-02 09:52:00,84.0,28.0,29.84,WSW,247,9.0,14.0,13,0.00,,,0.00,,2013-06-02 16:52:00,
2013-06-02 10:02:00,87.0,21.0,29.83,WSW,248,6.0,12.0,9,0.00,,,0.00,,2013-06-02 17:02:00,
2013-06-02 10:22:00,87.0,24.0,29.83,ESE,107,8.0,10.0,10,0.00,,,0.00,,2013-06-02 17:22:00,
2013-06-02 10:32:00,88.0,25.0,29.84,SW,220,6.0,11.0,10,0.00,,,0.00,,2013-06-02 17:32:00,
2013-06-02 10:42:00,87.0,24.0,29.84,SSW,203,6.0,14.0,10,0.00,,,0.00,,2013-06-02 17:42:00,
2013-06-02 10:52:00,87.0,24.0,29.84,SSW,203,6.0,14.0,10,0.00,,,0.00,,2013-06-02 17:52:00,
2013-06-02 11:01:00,89.0,25.0,29.83,SSW,211,4.0,13.0,10,0.00,,,0.00,,2013-06-02 18:01:00,
2013-06-02 11:11:00,90.0,31.0,29.83,SSW,213,1.0,11.0,12,0.00,,,0.00,,2013-06-02 18:11:00,
2013-06-02 11:21:00,90.0,31.0,29.83,SSW,213,1.0,11.0,12,0.00,,,0.00,,2013-06-02 18:21:00,
2013-06-02 11:31:00,90.0,31.0,29.83,SW,220,8.0,23.0,12,0.00,,,0.00,,2013-06-02 18:31:00,
2013-06-02 11:41:00,90.0,31.0,29.83,SW,227,11.0,26.0,12,0.00,,,0.00,,2013-06-02 18:41:00,
2013-06-02 11:52:00,90.0,31.0,29.83,SW,227,11.0,26.0,12,0.00,,,0.00,,2013-06-02 18:52:00,
2013-06-02 12:01:00,90.0,33.0,29.82,SSW,211,6.0,30.0,13,0.00,,,0.00,,2013-06-02 19:01:00,
2013-06-02 12:11:00,90.0,33.0,29.82,SSW,211,6.0,30.0,13,0.00,,,0.00,,2013-06-02 19:11:00,
2013-06-02 12:21:00,90.0,28.0,29.82,SW,227,15.0,25.0,11,0.00,,,0.00,,2013-06-02 19:21:00,
2013-06-02 12:31:00,90.0,31.0,29.81,WSW,247,12.0,27.0,12,0.00,,,0.00,,2013-06-02 19:31:00,
2013-06-02 12:41:00,90.0,31.0,29.81,WSW,247,12.0,27.0,12,0.00,,,0.00,,2013-06-02 19:41:00,
2013-06-02 12:52:00,91.0,27.0,29.81,SW,233,10.0,25.0,10,0.00,,,0.00,,2013-06-02 19:52:00,
2013-06-02 13:01:00,91.0,29.0,29.80,WSW,247,9.0,22.0,11,0.00,,,0.00,,2013-06-02 20:01:00,
2013-06-02 13:11:00,91.0,29.0,29.80,WSW,247,9.0,22.0,11,0.00,,,0.00,,2013-06-02 20:11:00,
2013-06-02 13:21:00,91.0,29.0,29.80,SW,220,12.0,23.0,11,0.00,,,0.00,,2013-06-02 20:21:00,
2013-06-02 13:31:00,91.0,29.0,29.79,WSW,242,17.0,28.0,11,0.00,,,0.00,,2013-06-02 20:31:00,
2013-06-02 13:42:00,91.0,29.0,29.79,WSW,242,17.0,28.0,11,0.00,,,0.00,,2013-06-02 20:42:00,
2013-06-02 13:52:00,90.0,31.0,29.79,SSW,192,16.0,28.0,12,0.00,,,0.00,,2013-06-02 20:52:00,
2013-06-02 14:01:00,91.0,29.0,29.78,WSW,238,18.0,28.0,11,0.00,,,0.00,,2013-06-02 21:01:00,
2013-06-02 14:11:00,91.0,29.0,29.78,WSW,238,18.0,28.0,11,0.00,,,0.00,,2013-06-02 21:11:00,
2013-06-02 14:21:00,92.0,32.0,29.78,SW,227,7.0,22.0,12,0.00,,,0.00,,2013-06-02 21:21:00,
2013-06-02 14:33:00,91.0,35.0,29.78,WSW,245,12.0,30.0,14,0.00,,,0.00,,2013-06-02 21:33:00,
2013-06-02 14:42:00,91.0,35.0,29.78,WSW,245,12.0,30.0,14,0.00,,,0.00,,2013-06-02 21:42:00,
2013-06-02 14:53:00,91.0,35.0,29.78,SW,231,16.0,31.0,14,0.00,,,0.00,,2013-06-02 21:53:00,
2013-06-02 15:02:00,90.0,36.0,29.77,SW,226,12.0,27.0,15,0.00,,,0.00,,2013-06-02 22:02:00,
2013-06-02 15:12:00,90.0,36.0,29.77,SW,226,12.0,27.0,15,0.00,,,0.00,,2013-06-02 22:12:00,
2013-06-02 15:22:00,90.0,38.0,29.77,WSW,243,17.0,27.0,16,0.00,,,0.00,,2013-06-02 22:22:00,
2013-06-02 15:32:00,90.0,34.0,29.77,WSW,242,16.0,24.0,14,0.00,,,0.00,,2013-06-02 22:32:00,
2013-06-02 15:42:00,90.0,34.0,29.77,WSW,242,16.0,24.0,14,0.00,,,0.00,,2013-06-02 22:42:00,
2013-06-02 15:52:00,90.0,34.0,29.77,SW,225,14.0,23.0,14,0.00,,,0.00,,2013-06-02 22:52:00,
2013-06-02 16:02:00,89.0,34.0,29.76,SW,234,15.0,29.0,14,0.00,,,0.00,,2013-06-02 23:02:00,
2013-06-02 16:12:00,89.0,34.0,29.76,SW,234,15.0,29.0,14,0.00,,,0.00,,2013-06-02 23:12:00,
2013-06-02 16:22:00,89.0,35.0,29.75,SW,230,12.0,24.0,15,0.00,,,0.00,,2013-06-02 23:22:00,
2013-06-02 16:32:00,88.0,36.0,29.75,WSW,242,13.0,23.0,16,0.00,,,0.00,,2013-06-02 23:32:00,
2013-06-02 16:42:00,88.0,36.0,29.75,WSW,242,13.0,23.0,16,0.00,,,0.00,,2013-06-02 23:42:00,
2013-06-02 16:52:00,88.0,39.0,29.75,SW,228,11.0,26.0,18,0.00,,,0.00,,2013-06-02 23:52:00,
2013-06-02 17:01:00,89.0,38.0,29.74,WSW,250,16.0,21.0,17,0.00,,,0.00,,2013-06-03 00:01:00,
2013-06-02 17:11:00,89.0,40.0,29.74,SW,227,11.0,24.0,18,0.00,,,0.00,,2013-06-03 00:11:00,
2013-06-02 17:21:00,89.0,40.0,29.74,SW,227,11.0,24.0,18,0.00,,,0.00,,2013-06-03 00:21:00,
2013-06-02 17:31:00,89.0,40.0,29.74,West,274,13.0,24.0,18,0.00,,,0.00,,2013-06-03 00:31:00,
2013-06-02 17:42:00,88.0,41.0,29.73,WSW,251,17.0,26.0,19,0.00,,,0.00,,2013-06-03 00:42:00,
2013-06-02 17:51:00,88.0,41.0,29.73,WSW,251,17.0,26.0,19,0.00,,,0.00,,2013-06-03 00:51:00,
2013-06-02 18:01:00,87.0,40.0,29.74,West,266,15.0,25.0,19,0.00,,,0.00,,2013-06-03 01:01:00,
2013-06-02 18:11:00,87.0,40.0,29.74,West,266,15.0,25.0,19,0.00,,,0.00,,2013-06-03 01:11:00,
2013-06-02 18:21:00,87.0,40.0,29.74,West,259,12.0,20.0,19,0.00,,,0.00,,2013-06-03 01:21:00,
2013-06-02 18:31:00,85.0,39.0,29.74,West,274,14.0,23.0,20,0.00,,,0.00,,2013-06-03 01:31:00,
2013-06-02 18:41:00,85.0,39.0,29.74,West,274,14.0,23.0,20,0.00,,,0.00,,2013-06-03 01:41:00,
2013-06-02 18:52:00,85.0,39.0,29.75,West,270,17.0,23.0,20,0.00,,,0.00,,2013-06-03 01:52:00,
2013-06-02 19:01:00,84.0,40.0,29.75,West,278,9.0,23.0,21,0.00,,,0.00,,2013-06-03 02:01:00,
2013-06-02 19:11:00,84.0,40.0,29.75,West,278,9.0,23.0,21,0.00,,,0.00,,2013-06-03 02:11:00,
2013-06-02 19:22:00,83.0,39.0,29.75,WNW,284,15.0,21.0,21,0.00,,,0.00,,2013-06-03 02:22:00,
2013-06-02 19:32:00,82.0,38.0,29.75,WNW,283,14.0,19.0,21,0.00,,,0.00,,2013-06-03 02:32:00,
2013-06-02 19:42:00,82.0,38.0,29.75,WNW,283,14.0,19.0,21,0.00,,,0.00,,2013-06-03 02:42:00,
2013-06-02 19:51:00,81.0,37.0,29.76,West,277,15.0,24.0,21,0.00,,,0.00,,2013-06-03 02:51:00,
2013-06-02 20:01:00,81.0,39.0,29.76,West,276,14.0,22.0,22,0.00,,,0.00,,2013-06-03 03:01:00,
2013-06-02 20:11:00,80.0,39.0,29.75,WNW,282,17.0,24.0,23,0.00,,,0.00,,2013-06-03 03:11:00,
2013-06-02 20:21:00,80.0,39.0,29.75,WNW,282,17.0,24.0,23,0.00,,,0.00,,2013-06-03 03:21:00,
2013-06-02 20:33:00,80.0,39.0,29.75,West,272,14.0,23.0,23,0.00,,,0.00,,2013-06-03 03:33:00,
2013-06-02 20:42:00,80.0,39.0,29.75,West,272,14.0,23.0,23,0.00,,,0.00,,2013-06-03 03:42:00,
2013-06-02 20:53:00,79.0,39.0,29.75,West,276,14.0,23.0,24,0.00,,,0.00,,2013-06-03 03:53:00,
2013-06-02 21:02:00,79.0,40.0,29.76,WNW,283,16.0,23.0,25,0.00,,,0.00,,2013-06-03 04:02:00,
2013-06-02 21:12:00,79.0,40.0,29.76,WNW,283,16.0,23.0,25,0.00,,,0.00,,2013-06-03 04:12:00,
2013-06-02 21:23:00,79.0,40.0,29.76,WNW,292,15.0,23.0,25,0.00,,,0.00,,2013-06-03 04:23:00,
2013-06-02 21:33:00,78.0,39.0,29.77,WNW,291,16.0,24.0,25,0.00,,,0.00,,2013-06-03 04:33:00,
2013-06-02 21:42:00,78.0,39.0,29.77,WNW,291,16.0,24.0,25,0.00,,,0.00,,2013-06-03 04:42:00,
2013-06-02 21:53:00,78.0,40.0,29.77,WNW,287,17.0,24.0,26,0.00,,,0.00,,2013-06-03 04:53:00,
2013-06-02 22:02:00,78.0,41.0,29.77,WNW,283,16.0,24.0,27,0.00,,,0.00,,2013-06-03 05:02:00,
2013-06-02 22:12:00,78.0,41.0,29.77,WNW,284,17.0,27.0,27,0.00,,,0.00,,2013-06-03 05:12:00,
2013-06-02 22:22:00,78.0,41.0,29.77,WNW,284,17.0,27.0,27,0.00,,,0.00,,2013-06-03 05:22:00,
2013-06-02 22:32:00,77.0,41.0,29.77,WNW,293,16.0,24.0,28,0.00,,,0.00,,2013-06-03 05:32:00,
2013-06-02 22:42:00,77.0,41.0,29.77,WNW,293,16.0,24.0,28,0.00,,,0.00,,2013-06-03 05:42:00,
2013-06-02 22:52:00,77.0,42.0,29.78,WNW,288,14.0,27.0,29,0.00,,,0.00,,2013-06-03 05:52:00,
2013-06-02 23:02:00,77.0,42.0,29.77,WNW,289,18.0,25.0,29,0.00,,,0.00,,2013-06-03 06:02:00,
2013-06-02 23:12:00,77.0,42.0,29.77,WNW,289,18.0,25.0,29,0.00,,,0.00,,2013-06-03 06:12:00,
2013-06-02 23:22:00,77.0,42.0,29.78,WNW,290,13.0,27.0,29,0.00,,,0.00,,2013-06-03 06:22:00,
2013-06-02 23:31:00,76.0,41.0,29.78,West,281,16.0,24.0,29,0.00,,,0.00,,2013-06-03 06:31:00,
2013-06-02 23:42:00,76.0,41.0,29.78,West,281,16.0,24.0,29,0.00,,,0.00,,2013-06-03 06:42:00,
2013-06-02 23:52:00,76.0,41.0,29.77,WNW,284,16.0,24.0,29,0.00,,,0.00,,2013-06-03 06:52:00,